#datint,netname,site,siteID,timestamp,IntT,BattV,AirT2,AirT,AirT_Avg,AirT_Max,AirT_Min,RH_Avg,RH_Max,RH_Min,EA_Avg,Td_Avg,Td_Max,Td_Min,WindS_Smp,WindS_Avg,WindD_Avg,WindD_SD,WindS_Max,ETo,ETr,SoilT4,SoilT8,SoilVWC8,SolarW_Avg,wetstate_Avg,wetT_Avg,Precip_accum,Precip_WPG,Precip_TB
15min,AgWx,beryljct,423,13DEC2020:00:00:00,12.5,12.65,8.9,8.0,8.3,10.3,6.8,83,85,81,0.187,4.1,6.4,2.6,1.951,4.3,330,16,5.9,0.00002,0.00002,28.3,34.3,9,0,0,.,6.00,0.00,0.00
15min,AgWx,beryljct,423,13DEC2020:00:15:00,11.7,12.65,10.5,10.0,9.5,10.4,8.0,84,86,81,0.194,5.5,6.3,4.5,5.612,4.2,315,5.7,6.6,0.00001,0.00002,28.1,34.2,8,0,0,.,6.00,0.00,0.00
15min,AgWx,beryljct,423,13DEC2020:00:30:00,11.5,12.62,8.0,8.0,9.2,10.0,8.0,81,82,81,0.179,4.6,5.3,3.5,3.025,4.5,341,7.3,5.8,0.00002,0.00003,28.0,34.1,8,0,0,.,6.00,0.00,0.00
15min,AgWx,beryljct,423,13DEC2020:00:45:00,11.1,12.6,10.9,9.8,8.5,9.8,7.1,83,84,81,0.195,4.2,5.5,2.7,4.867,3.7,313,9.1,5.1,0.00001,0.00002,27.8,34.1,9,0,0,.,6.00,0.00,0.00
15min,AgWx,beryljct,423,13DEC2020:01:00:00,10.8,12.59,9.3,8.5,9.1,10.0,8.4,81,82,80,0.184,4.5,5.5,3.6,6.072,3.9,317,13,6.1,0.00002,0.00002,27.6,34.0,8,0,0,.,6.00,0.00,0.00
15min,AgWx,beryljct,423,13DEC2020:01:15:00,10.7,12.59,11.2,10.3,9.8,11.0,8.6,81,82,78,0.193,4.9,6.2,4.2,5.437,6.2,310,13,8.1,0.00003,0.00004,27.4,33.9,8,0,0,.,6.00,0.00,0.00
15min,AgWx,beryljct,423,13DEC2020:01:30:00,10.7,12.58,11.5,10.3,9.8,10.5,9.1,79,80,78,0.195,4.6,5.5,3.7,4.932,4.4,328,9.4,5.7,0.00003,0.00003,27.2,33.9,8,0,0,.,6.00,0.00,0.00
15min,AgWx,beryljct,423,13DEC2020:01:45:00,10.6,12.55,10.8,8.9,9.9,11.0,8.3,78,80,76,0.176,4.5,5.8,2.4,2.192,3.0,347,36,5.2,0.00002,0.00002,27.0,33.8,8,0,0,.,6.00,0.00,0.00
15min,AgWx,beryljct,423,13DEC2020:02:00:00,10.1,12.54,9.7,9.5,8.4,9.9,6.9,79,82,77,0.186,3.3,5.1,1.6,1.776,3.2,45,26,5.0,0.00002,0.00002,26.9,33.7,8,0,0,.,6.00,0.00,0.00
15min,AgWx,beryljct,423,13DEC2020:02:15:00,9.4,12.53,8.4,7.8,7.3,9.5,5.9,80,82,76,0.174,2.4,4.3,0.6,0.526,0.4,277,23,1.5,-0.00002,-0.00003,26.7,33.6,8,0,0,.,6.00,0.00,0.00
15min,AgWx,beryljct,423,13DEC2020:02:30:00,8.7,12.51,3.7,4.0,7.0,8.0,4.0,80,81,79,0.145,2.1,3.3,-0.9,4.735,2.7,189,57,5.7,0.00001,0.00001,26.5,33.6,8,0,0,.,6.00,0.00,0.00
15min,AgWx,beryljct,423,13DEC2020:02:45:00,8.2,12.5,9.4,9.1,5.7,9.1,3.6,83,86,79,0.189,1.7,5.0,-1.3,3.157,3.8,197,13,5.7,0.00001,0.00002,26.3,33.5,9,0,0,.,6.00,0.00,0.00
15min,AgWx,beryljct,423,13DEC2020:03:00:00,8.2,12.5,9.8,9.6,9.0,10.1,7.6,81,83,78,0.193,4.3,5.9,2.4,1.6,2.9,215,31,5.4,0.00001,0.00002,26.2,33.4,8,0,0,.,6.00,0.00,0.00
15min,AgWx,beryljct,423,13DEC2020:03:15:00,8.2,12.5,6.6,5.8,7.4,9.7,5.5,81,82,79,0.161,2.7,5.2,1.0,0.197,1.7,226,15,2.9,-0.00000,0.00000,26.0,33.3,8,0,0,.,6.01,0.00,0.00
15min,AgWx,beryljct,423,13DEC2020:03:30:00,7.8,12.48,3.8,4.3,6.3,7.2,4.3,82,84,80,0.148,2.1,3.2,-0.5,4.165,1.7,336,38,4.4,-0.00000,-0.00000,25.8,33.2,8,0,0,.,6.00,0.00,0.00
15min,AgWx,beryljct,423,13DEC2020:03:45:00,7.1,12.46,5.3,4.3,2.5,4.3,1.5,82,86,80,0.159,-1.7,0.9,-2.9,3.617,4.4,314,8.0,5.5,0.00001,0.00002,25.7,33.2,8,0,0,.,6.01,0.00,0.00
15min,AgWx,beryljct,423,13DEC2020:04:00:00,6.4,12.47,7.6,6.5,4.4,6.5,3.0,84,86,83,0.173,0.8,2.8,-1.1,0.11,1.4,87,68,3.7,-0.00001,-0.00001,25.5,33.1,8,0,0,.,6.01,0.00,0.00
15min,AgWx,beryljct,423,13DEC2020:04:15:00,6.1,12.46,2.7,2.2,5.4,7.0,2.2,81,84,78,0.133,0.9,3.0,-2.9,3.946,0.7,56,35,3.9,-0.00002,-0.00002,25.3,33.0,8,0,0,.,6.00,0.00,0.00
15min,AgWx,beryljct,423,13DEC2020:04:30:00,5.5,12.44,0.7,0.2,2.1,3.5,0.2,82,84,79,0.124,-2.1,-0.2,-4.3,3.617,3.2,172,16,4.7,0.00001,0.00001,25.2,32.9,9,0,0,.,6.01,0.00,0.00
15min,AgWx,beryljct,423,13DEC2020:04:45:00,4.7,12.42,-0.1,-0.4,0.1,1.0,-0.4,84,86,81,0.125,-3.6,-2.3,-4.4,1.885,3.1,166,26,4.5,0.00001,0.00001,25.0,32.8,8,0,0,.,6.01,0.00,0.00
15min,AgWx,beryljct,423,13DEC2020:05:00:00,4.0,12.44,1.5,0.9,0.2,1.3,-1.1,85,86,83,0.135,-3.2,-1.9,-4.9,2.828,2.4,194,15,3.2,-0.00000,0.00000,24.9,32.8,8,0,0,.,6.01,0.00,0.00
15min,AgWx,beryljct,423,13DEC2020:05:15:00,3.5,12.42,2.5,1.7,2.4,4.2,0.9,86,88,84,0.139,-0.8,1.3,-2.5,0.789,2.0,178,6.6,3.5,-0.00000,-0.00000,24.8,32.7,8,0,0,.,6.00,0.00,0.00
15min,AgWx,beryljct,423,13DEC2020:05:30:00,3.2,12.43,3.3,3.3,1.7,3.5,0.6,85,88,83,0.154,-1.8,0.6,-3.3,2.389,2.9,194,25,4.2,0.00000,0.00001,24.6,32.6,8,0,0,.,6.01,0.00,0.00
15min,AgWx,beryljct,423,13DEC2020:05:45:00,3.1,12.41,2.9,2.0,1.3,3.3,0.1,85,87,84,0.143,-2.2,0.2,-3.7,2.981,2.5,189,17,3.7,0.00000,0.00000,24.4,32.5,8,0,0,.,6.01,0.00,0.00
15min,AgWx,beryljct,423,13DEC2020:06:00:00,3.1,12.4,7.0,6.2,4.4,6.6,1.4,86,88,84,0.170,1.3,3.2,-1.7,3.464,4.0,209,7.4,5.0,0.00001,0.00001,24.3,32.4,8,0,0,.,6.01,0.00,0.00
15min,AgWx,beryljct,423,13DEC2020:06:15:00,3.7,12.41,0.9,1.0,5.2,8.3,1.0,82,85,77,0.127,0.9,4.5,-3.7,3.266,3.6,158,20,7.2,0.00001,0.00002,24.2,32.3,8,0,0,.,6.00,0.00,0.00
15min,AgWx,beryljct,423,13DEC2020:06:30:00,3.7,12.38,0.4,-0.1,0.2,0.9,-0.1,82,83,80,0.125,-4.0,-3.7,-4.2,0,1.6,179,20,3.5,-0.00000,-0.00000,24.0,32.3,8,0,0,.,6.01,0.00,0.00
15min,AgWx,beryljct,423,13DEC2020:06:45:00,3.4,12.41,-0.8,-1.5,-1.1,0.1,-1.9,83,84,81,0.119,-5.1,-3.8,-6.3,3.836,2.7,324,29,4.7,0.00000,0.00001,23.9,32.2,8,0,0,.,6.01,0.00,0.00
15min,AgWx,beryljct,423,13DEC2020:07:00:00,2.8,12.4,-2.0,-2.7,-2.0,-1.4,-2.8,83,84,83,0.110,-5.9,-5.0,-6.8,2.543,2.6,325,9.1,4.2,0.00003,0.00004,23.8,32.1,8,0,0,.,6.01,0.00,0.00
15min,AgWx,beryljct,423,13DEC2020:07:15:00,2.2,12.4,-2.0,-2.6,-2.6,-2.3,-2.8,83,83,82,0.111,-6.6,-6.1,-6.9,2.411,2.5,327,2.6,3.0,0.00003,0.00004,23.7,32.0,8,0,0,.,6.01,0.00,0.00
15min,AgWx,beryljct,423,13DEC2020:07:30:00,1.9,12.38,3.6,2.0,-1.0,2.0,-2.7,84,86,82,0.144,-4.7,-1.1,-6.7,4.998,3.7,329,5.7,5.2,0.00004,0.00006,23.6,32.0,8,2,0,.,6.01,0.00,0.00
15min,AgWx,beryljct,423,13DEC2020:07:45:00,2.6,12.39,7.2,6.6,4.1,6.6,2.2,86,87,84,0.173,0.8,2.9,-0.9,6.357,5.8,322,11,7.4,0.00007,0.00011,23.4,31.8,8,17,0,.,6.00,0.00,0.00
15min,AgWx,beryljct,423,13DEC2020:08:00:00,4.2,12.57,7.7,6.9,6.5,6.9,6.0,83,84,82,0.173,2.4,2.8,1.5,5.722,5.5,332,6.6,6.5,0.00011,0.00016,23.4,31.8,8,29,0,.,6.00,0.00,0.00
15min,AgWx,beryljct,423,13DEC2020:08:15:00,5.9,14.35,7.9,7.2,7.6,8.2,6.9,82,83,80,0.172,3.1,3.8,2.5,2.433,4.6,354,28,6.7,0.00016,0.00021,23.3,31.7,9,72,0,.,6.01,0.00,0.00
15min,AgWx,beryljct,423,13DEC2020:08:30:00,7.4,13.21,8.4,8.0,7.5,8.0,7.2,82,83,81,0.179,3.2,3.6,2.8,0.723,1.9,349,24,2.6,0.00016,0.00019,23.2,31.6,9,67,0,.,6.00,0.00,0.00
15min,AgWx,beryljct,423,13DEC2020:08:45:00,8.6,13.37,7.4,7.0,8.2,9.2,7.0,83,84,82,0.173,4.1,5.4,2.8,5.875,4.7,185,35,7.8,0.00021,0.00026,23.1,31.5,8,95,0,.,6.00,0.00,0.00
15min,AgWx,beryljct,423,13DEC2020:09:00:00,9.0,13.72,7.4,6.6,6.6,7.0,6.5,83,83,83,0.171,2.5,2.8,2.3,4.406,5.7,176,7.5,7.5,0.00021,0.00026,23.1,31.4,8,94,0,.,6.00,0.00,0.00
15min,AgWx,beryljct,423,13DEC2020:09:15:00,9.2,14.94,8.8,7.8,7.0,7.8,6.6,83,84,83,0.182,3.1,4.0,2.6,5.546,5.7,167,7.4,7.2,0.00025,0.00031,23.1,31.4,9,130,0,.,6.00,0.00,0.00
15min,AgWx,beryljct,423,13DEC2020:09:30:00,10.4,14.95,12.8,10.7,9.3,10.7,7.9,83,85,81,0.202,5.2,6.2,4.0,3.683,5.6,169,9.4,7.1,0.00041,0.00048,23.1,31.3,9,242,0,.,6.00,0.00,0.00
15min,AgWx,beryljct,423,13DEC2020:09:45:00,12.7,14.97,14.5,13.3,11.8,13.3,10.9,81,83,78,0.217,7.0,8.0,6.4,1.447,3.7,173,14,5.6,0.00051,0.00058,23.1,31.2,9,257,0,.,6.00,0.00,0.00
15min,AgWx,beryljct,423,13DEC2020:10:00:00,15.7,14.98,15.7,14.9,14.7,16.5,13.4,76,78,72,0.227,8.6,9.8,7.4,0,0.9,137,41,2.9,0.00076,0.00082,23.1,31.1,9,330,0,.,6.00,0.00,0.00
15min,AgWx,beryljct,423,13DEC2020:10:15:00,19.6,14.9,17.2,16.9,16.2,17.7,15.0,76,78,75,0.244,10.1,12.0,8.8,4.077,2.0,134,25,4.1,0.00095,0.00105,23.1,31.1,9,422,0,.,6.00,0.00,0.00
15min,AgWx,beryljct,423,13DEC2020:10:30:00,22.5,14.85,18.5,17.7,17.6,18.3,17.0,75,76,73,0.250,11.1,12.0,10.2,0.132,3.2,115,18,5.3,0.00095,0.00107,23.2,31.0,9,408,0,.,6.00,0.00,0.00
15min,AgWx,beryljct,423,13DEC2020:10:45:00,23.2,14.87,19.7,18.5,18.2,18.9,17.6,74,75,72,0.256,11.1,12.0,10.6,2.214,1.7,103,30,4.3,0.00061,0.00069,23.3,30.9,9,217,0,.,6.00,0.00,0.00
15min,AgWx,beryljct,423,13DEC2020:11:00:00,23.2,14.87,19.3,19.0,18.7,19.4,18.1,73,74,71,0.253,11.5,12.0,10.9,1.841,2.6,108,16,4.0,0.00068,0.00078,23.5,30.8,9,247,0,.,6.00,0.00,0.00
15min,AgWx,beryljct,423,13DEC2020:11:15:00,23.5,14.85,20.5,20.1,19.8,20.7,19.0,69,71,68,0.255,11.4,12.2,10.9,0.921,0.8,50,68,2.9,0.00074,0.00082,23.7,30.8,9,255,0,.,6.00,0.00,0.00
15min,AgWx,beryljct,423,13DEC2020:11:30:00,24.1,13.96,20.9,20.6,20.5,21.1,20.1,68,69,68,0.260,11.7,12.2,11.3,0.044,0.7,14,59,3.1,0.00065,0.00071,24.0,30.7,8,208,0,.,6.00,0.00,0.00
15min,AgWx,beryljct,423,13DEC2020:11:45:00,24.7,14.82,21.6,21.5,21.3,22.0,20.6,67,68,65,0.260,12.0,12.7,11.7,1.118,0.6,71,40,2.2,0.00071,0.00078,24.3,30.6,9,229,0,.,6.00,0.00,0.00
15min,AgWx,beryljct,423,13DEC2020:12:00:00,25.4,14.37,22.7,22.7,22.2,22.8,21.4,65,66,63,0.263,12.0,12.6,11.6,1.447,0.7,314,57,2.4,0.00080,0.00088,24.6,30.6,9,260,0,.,6.00,0.00,0.00
15min,AgWx,beryljct,423,13DEC2020:12:15:00,26.5,14.37,25.4,24.4,23.6,24.5,22.6,61,63,59,0.264,12.3,12.7,11.9,2.126,1.3,57,34,3.6,0.00107,0.00118,24.9,30.5,8,353,0,.,6.00,0.00,0.00
15min,AgWx,beryljct,423,13DEC2020:12:30:00,27.9,14.33,26.0,25.7,24.8,25.7,24.0,58,59,56,0.267,12.0,12.6,11.4,2.916,2.2,102,34,4.2,0.00129,0.00146,25.1,30.5,8,433,0,.,6.00,0.00,0.00
15min,AgWx,beryljct,423,13DEC2020:12:45:00,29.5,14.39,26.9,26.7,26.2,26.7,25.4,54,57,52,0.257,11.9,12.9,11.3,2.587,2.5,57,37,5.7,0.00157,0.00178,25.4,30.5,8,520,0,.,6.00,0.00,0.00
15min,AgWx,beryljct,423,13DEC2020:13:00:00,31.6,14.37,30.0,29.2,28.1,29.3,26.6,51,53,49,0.271,12.3,13.3,11.3,0.482,1.7,115,72,4.0,0.00171,0.00192,25.7,30.4,8,532,0,.,6.00,0.00,0.00
15min,AgWx,beryljct,423,13DEC2020:13:15:00,33.7,14.21,29.5,28.8,29.1,29.9,28.6,50,51,48,0.267,12.6,13.4,11.9,2.236,2.1,50,55,4.2,0.00176,0.00198,26.1,30.4,8,534,0,.,5.99,0.00,0.00
15min,AgWx,beryljct,423,13DEC2020:13:30:00,35.1,14.24,29.7,29.9,29.1,29.9,28.7,49,50,48,0.274,12.4,13.0,12.1,1.885,2.5,313,35,5.4,0.00132,0.00153,26.4,30.4,8,412,0,.,5.99,0.00,0.00
15min,AgWx,beryljct,423,13DEC2020:13:45:00,35.8,14.19,30.7,30.6,30.8,32.0,29.8,47,49,45,0.266,12.9,14.0,12.2,1.776,2.0,112,54,3.9,0.00130,0.00150,26.9,30.3,8,396,0,.,5.99,0.00,0.00
15min,AgWx,beryljct,423,13DEC2020:14:00:00,35.9,14.23,30.8,31.3,30.5,31.3,30.0,47,48,46,0.278,12.6,13.5,12.2,1.644,1.1,138,39,3.0,0.00087,0.00099,27.3,30.4,8,263,0,.,5.99,0.00,0.00
15min,AgWx,beryljct,423,13DEC2020:14:15:00,35.9,14.19,32.1,31.3,31.2,31.9,30.7,45,47,43,0.259,12.2,13.6,11.4,1.885,2.7,98,37,5.1,0.00103,0.00126,27.7,30.4,8,315,0,.,5.99,0.00,0.00
15min,AgWx,beryljct,423,13DEC2020:14:30:00,36.2,14.21,34.9,33.5,32.1,33.5,31.4,43,44,41,0.269,11.9,12.6,11.4,3.047,2.1,82,35,4.8,0.00135,0.00158,28.1,30.4,8,400,0,.,5.99,0.00,0.00
15min,AgWx,beryljct,423,13DEC2020:14:45:00,37.5,14.14,35.1,34.7,33.6,34.9,32.6,40,41,35,0.250,11.6,12.7,9.8,1.754,2.6,60,22,6.2,0.00138,0.00165,28.5,30.4,8,389,0,.,5.99,0.00,0.00
15min,AgWx,beryljct,423,13DEC2020:15:00:00,39.1,14.12,38.9,38.2,36.7,39.0,34.6,30,37,21,0.189,7.7,11.0,1.8,1.228,3.5,101,41,9.2,0.00146,0.00185,28.8,30.4,8,365,0,.,5.98,0.00,0.00
15min,AgWx,beryljct,423,13DEC2020:15:15:00,40.8,14.07,39.7,39.7,39.4,40.3,38.2,22,25,18,0.153,3.3,5.9,0.1,8.2,5.6,202,34,11.0,0.00162,0.00224,29.1,30.5,8,341,0,.,5.98,0.00,0.00
15min,AgWx,beryljct,423,13DEC2020:15:30:00,41.8,14.19,40.6,40.3,39.9,40.4,39.5,18,19,18,0.151,0.1,1.2,-0.8,6.489,8.6,189,9.6,11.6,0.00183,0.00269,29.4,30.5,8,326,0,.,5.98,0.00,0.00
15min,AgWx,beryljct,423,13DEC2020:15:45:00,42.0,14.14,39.4,39.2,39.6,40.2,39.2,18,20,17,0.159,-0.2,1.3,-1.2,7.015,8.9,178,12,12.3,0.00152,0.00238,29.7,30.5,8,241,0,.,5.98,0.00,0.00
15min,AgWx,beryljct,423,13DEC2020:16:00:00,41.7,14.15,38.5,38.2,38.7,39.6,38.1,20,21,20,0.158,1.2,2.1,0.7,8.37,7.9,168,11,10.4,0.00112,0.00186,30.0,30.6,8,160,0,.,5.98,0.00,0.00
15min,AgWx,beryljct,423,13DEC2020:16:15:00,40.6,13.38,38.2,38.2,38.4,38.7,38.0,19,21,18,0.151,0.1,1.1,-0.8,8.02,8.2,184,21,13.8,0.00090,0.00165,30.2,30.7,8,94,0,.,5.98,0.00,0.00
15min,AgWx,beryljct,423,13DEC2020:16:30:00,39.4,13.31,36.9,36.7,37.3,38.2,36.7,21,22,19,0.160,0.9,1.6,-0.1,6.248,7.7,181,11,10.5,0.00044,0.00054,30.5,30.7,8,70,0,.,5.98,0.00,0.00
15min,AgWx,beryljct,423,13DEC2020:16:45:00,38.1,13.29,35.5,35.4,36.1,36.7,35.4,23,24,22,0.166,1.5,1.9,1.1,5.941,6.3,166,11,9.4,0.00037,0.00046,30.6,30.8,8,63,0,.,5.97,0.00,0.00
15min,AgWx,beryljct,423,13DEC2020:17:00:00,36.7,13.12,33.9,33.6,34.5,35.4,33.6,25,26,24,0.170,2.1,2.5,1.7,3.617,4.3,163,12,6.4,0.00021,0.00029,30.8,30.9,9,25,0,.,5.97,0.00,0.00
15min,AgWx,beryljct,423,13DEC2020:17:15:00,35.1,13.05,33.0,32.9,33.2,33.7,32.9,27,28,26,0.169,2.5,3.0,2.0,10.11,7.1,180,21,12.5,0.00028,0.00036,30.8,30.9,9,8,0,.,5.97,0.00,0.00
15min,AgWx,beryljct,423,13DEC2020:17:30:00,33.8,13.01,31.4,31.3,31.9,32.9,31.2,28,30,27,0.175,2.6,3.1,2.4,8.66,7.9,194,5.8,10.7,0.00029,0.00035,30.9,31.0,8,1,0,.,5.98,0.00,0.00
15min,AgWx,beryljct,423,13DEC2020:17:45:00,32.7,12.99,33.4,32.4,31.3,32.4,31.0,30,30,28,0.174,3.3,3.7,2.9,10.04,10.0,189,7.1,13.0,0.00031,0.00037,30.9,31.1,8,0,0,.,5.98,0.00,0.00
15min,AgWx,beryljct,423,13DEC2020:18:00:00,32.1,12.97,31.2,31.1,31.6,32.5,31.0,30,31,28,0.182,3.6,4.0,2.9,5.963,9.1,186,9.1,12.6,0.00030,0.00036,30.9,31.2,9,0,0,.,5.97,0.00,0.00
15min,AgWx,beryljct,423,13DEC2020:18:15:00,31.6,12.95,32.0,31.2,31.3,31.7,31.0,31,32,31,0.186,4.1,4.5,3.8,9.36,7.5,153,14,10.1,0.00025,0.00031,30.8,31.3,9,0,0,.,5.97,0.00,0.00
15min,AgWx,beryljct,423,13DEC2020:18:30:00,31.4,12.94,29.7,29.4,30.3,31.3,29.4,34,36,31,0.200,5.3,6.0,4.4,5.327,6.3,142,9.3,9.3,0.00020,0.00026,30.8,31.3,8,0,0,.,5.97,0.00,0.00
15min,AgWx,beryljct,423,13DEC2020:18:45:00,30.8,12.93,28.9,28.9,29.0,29.5,28.5,38,39,36,0.208,6.4,7.0,5.9,5.437,5.5,158,6.1,7.5,0.00015,0.00020,30.7,31.4,8,0,0,.,5.97,0.00,0.00
15min,AgWx,beryljct,423,13DEC2020:19:00:00,30.1,12.92,26.7,26.6,28.0,28.9,26.6,40,43,39,0.209,6.8,7.0,6.6,2.389,3.1,148,22,6.5,0.00004,0.00007,30.6,31.5,9,0,0,.,5.97,0.00,0.00
15min,AgWx,beryljct,423,13DEC2020:19:15:00,29.4,12.9,28.5,27.7,27.2,27.8,26.5,44,45,43,0.223,8.1,8.7,6.9,6.094,5.4,125,21,8.4,0.00012,0.00016,30.5,31.6,9,0,0,.,5.97,0.00,0.00
15min,AgWx,beryljct,423,13DEC2020:19:30:00,29.0,12.89,28.0,27.5,27.3,27.9,26.8,43,43,43,0.217,7.8,8.3,7.4,1.381,3.5,258,31,5.5,0.00005,0.00008,30.4,31.6,9,0,0,.,5.97,0.00,0.00
15min,AgWx,beryljct,423,13DEC2020:19:45:00,28.7,12.88,27.1,27.7,27.6,28.3,26.9,42,44,41,0.218,7.7,7.9,7.5,1.403,1.3,347,53,2.5,-0.00009,-0.00011,30.3,31.7,9,0,0,.,5.97,0.00,0.00
15min,AgWx,beryljct,423,13DEC2020:20:00:00,28.5,12.88,28.2,28.0,27.8,28.1,27.2,43,44,42,0.222,8.2,8.6,7.7,1.754,2.5,261,31,5.2,-0.00000,0.00002,30.2,31.8,9,0,0,.,5.98,0.00,0.00
15min,AgWx,beryljct,423,13DEC2020:20:15:00,28.4,12.86,27.9,27.0,27.7,28.4,27.0,43,44,42,0.212,8.0,8.3,7.2,1.929,1.7,312,54,2.9,-0.00006,-0.00006,30.2,31.8,8,0,0,.,5.98,0.00,0.00
15min,AgWx,beryljct,423,13DEC2020:20:30:00,28.3,12.85,29.9,29.3,27.9,29.9,25.9,42,47,37,0.211,7.6,8.6,6.9,1.337,1.9,140,83,4.7,-0.00004,-0.00004,30.1,31.8,8,0,0,.,5.98,0.00,0.00
15min,AgWx,beryljct,423,13DEC2020:20:45:00,28.4,12.84,27.6,27.4,28.2,29.3,27.4,40,42,39,0.201,7.1,8.1,5.8,7.037,5.4,0.3,31,8.8,0.00013,0.00018,30.0,31.9,9,0,0,.,5.98,0.00,0.00
15min,AgWx,beryljct,423,13DEC2020:21:00:00,28.3,12.83,29.5,29.7,27.9,29.7,27.1,38,40,34,0.192,5.7,6.3,5.0,2.477,4.9,5.6,31,7.5,0.00013,0.00017,30.0,31.9,9,0,0,.,5.98,0.00,0.00
15min,AgWx,beryljct,423,13DEC2020:21:15:00,28.4,12.83,29.1,28.8,29.0,30.7,28.2,36,37,32,0.192,5.1,5.5,4.6,2.938,1.7,113,54,3.1,-0.00005,-0.00004,29.9,32.0,9,0,0,.,5.98,0.00,0.00
15min,AgWx,beryljct,423,13DEC2020:21:30:00,29.5,12.81,34.7,34.5,33.2,34.6,28.9,31,36,29,0.195,5.6,6.1,5.2,10.61,9.9,194,16,14.1,0.00032,0.00039,29.9,32.0,9,0,0,.,5.98,0.00,0.00
15min,AgWx,beryljct,423,13DEC2020:21:45:00,31.2,12.8,34.9,34.5,34.5,34.7,34.4,29,29,29,0.195,5.5,5.7,5.4,9.45,11.1,202,5.4,13.6,0.00038,0.00044,29.8,32.0,9,0,0,.,5.97,0.00,0.00
15min,AgWx,beryljct,423,13DEC2020:22:00:00,32.3,12.81,35.9,34.9,34.5,34.9,34.3,29,29,28,0.195,5.4,5.5,5.3,13.64,10.6,208,8.7,13.6,0.00036,0.00043,29.7,32.0,8,0,0,.,5.97,0.00,0.00
15min,AgWx,beryljct,423,13DEC2020:22:15:00,33.1,12.8,33.7,33.4,34.6,35.1,33.3,29,30,28,0.193,5.3,5.4,5.1,6.314,7.9,211,8.7,11.9,0.00031,0.00038,29.7,32.1,8,0,0,.,5.98,0.00,0.00
15min,AgWx,beryljct,423,13DEC2020:22:30:00,33.2,12.8,35.3,34.3,33.1,34.3,32.6,31,31,29,0.195,5.4,5.6,5.1,9.01,6.9,226,7.2,9.2,0.00025,0.00032,29.7,32.1,9,0,0,.,5.98,0.00,0.00
15min,AgWx,beryljct,423,13DEC2020:22:45:00,33.4,12.77,35.7,35.4,34.7,35.4,33.9,29,29,27,0.192,5.3,5.5,5.0,8.7,8.1,204,7.1,11.2,0.00031,0.00039,29.7,32.1,9,0,0,.,5.98,0.00,0.00
15min,AgWx,beryljct,423,13DEC2020:23:00:00,33.9,12.78,35.1,34.9,35.0,35.5,34.7,28,28,27,0.192,5.1,5.2,4.8,9.69,9.2,201,6.8,13.4,0.00035,0.00042,29.7,32.1,8,0,0,.,5.98,0.00,0.00
15min,AgWx,beryljct,423,13DEC2020:23:15:00,34.2,12.77,35.1,34.9,34.8,35.1,34.5,28,28,28,0.190,5.0,5.1,4.8,9.62,9.1,208,7.7,11.7,0.00034,0.00042,29.6,32.1,8,0,0,.,5.98,0.00,0.00
15min,AgWx,beryljct,423,13DEC2020:23:30:00,34.3,12.76,35.4,34.9,34.9,35.1,34.6,27,28,27,0.187,4.6,4.7,4.3,10.94,9.9,201,7.4,14.1,0.00036,0.00044,29.7,32.1,9,0,0,.,5.98,0.00,0.00
15min,AgWx,beryljct,423,13DEC2020:23:45:00,34.4,12.75,34.8,34.3,34.9,35.3,34.3,27,28,27,0.186,4.5,4.6,4.3,8.31,10.1,201,8.5,13.9,0.00037,0.00044,29.6,32.1,8,0,0,.,5.98,0.00,0.00
15min,AgWx,bigpiney,439,13DEC2020:00:00:00,-1.4,12.49,-0.1,-0.2,-0.4,1.1,-1.8,74,76,72,0.108,-6.8,-4.7,-8.1,1.535,2.7,204,14,5.1,-0.00001,-0.00001,30.3,32.8,46,0,0,0.0,0.00,0.00,0.00
15min,AgWx,bigpiney,439,13DEC2020:00:15:00,-1.6,12.46,-5.1,-5.3,-4.1,-0.2,-5.4,75,79,71,0.093,-10.0,-7.1,-11.2,1.951,2.2,177,20,4.8,-0.00002,-0.00002,30.3,32.7,46,0,0,0.0,0.00,0.00,0.00
15min,AgWx,bigpiney,439,13DEC2020:00:30:00,-2.0,12.46,-8.6,-8.6,-6.7,-5.3,-8.6,79,80,79,0.079,-11.4,-10.1,-13.3,1.82,2.3,242,30,3.3,-0.00002,-0.00002,30.3,32.7,46,0,0,0.0,0.00,0.00,0.00
15min,AgWx,bigpiney,439,13DEC2020:00:45:00,-2.7,12.45,-7.9,-8.1,-9.4,-7.8,-10.7,81,84,79,0.085,-13.7,-11.4,-15.2,1.688,2.6,272,19,4.3,-0.00001,-0.00002,30.3,32.7,46,0,0,0.0,0.00,0.00,0.00
15min,AgWx,bigpiney,439,13DEC2020:01:00:00,-3.7,12.43,-8.6,-6.4,-7.6,-6.1,-8.8,83,84,81,0.093,-11.5,-9.8,-13.0,3.573,3.3,255,9.4,4.3,-0.00001,-0.00001,30.3,32.6,46,0,0,0.0,0.00,0.00,0.00
15min,AgWx,bigpiney,439,13DEC2020:01:15:00,-4.5,12.42,-5.2,-6.6,-6.3,-5.7,-7.4,82,83,81,0.090,-10.3,-9.5,-11.7,3.069,3.2,286,29,4.1,-0.00001,-0.00001,30.2,32.7,46,0,0,0.0,0.00,0.00,0.00
15min,AgWx,bigpiney,439,13DEC2020:01:30:00,-5.1,12.4,-4.6,-5.1,-5.9,-4.9,-6.6,82,83,82,0.097,-9.9,-8.9,-10.8,4.077,3.0,286,24,4.4,-0.00002,-0.00002,30.2,32.7,46,0,0,0.0,0.00,0.00,0.00
15min,AgWx,bigpiney,439,13DEC2020:01:45:00,-5.3,12.39,-7.7,-8.1,-6.4,-5.1,-8.1,80,82,78,0.081,-10.9,-9.3,-13.0,4.582,4.2,261,6.9,5.4,-0.00001,-0.00000,30.2,32.7,46,0,0,0.0,0.00,0.00,0.00
15min,AgWx,bigpiney,439,13DEC2020:02:00:00,-5.5,12.38,-8.5,-8.8,-9.1,-7.9,-10.1,80,81,78,0.079,-13.8,-12.5,-15.0,6.883,5.7,231,7.5,7.1,0.00000,0.00000,30.2,32.8,46,0,0,0.0,0.00,0.00,0.00
15min,AgWx,bigpiney,439,13DEC2020:02:15:00,-5.6,12.37,-6.6,-7.2,-7.8,-6.6,-9.1,80,81,79,0.085,-12.3,-11.0,-13.7,5.963,6.3,232,20,8.6,0.00000,0.00001,30.2,32.7,46,0,0,0.0,0.00,0.00,0.00
15min,AgWx,bigpiney,439,13DEC2020:02:30:00,-5.4,12.36,-5.2,-6.3,-6.9,-6.3,-7.2,80,81,79,0.090,-11.5,-10.7,-11.9,4.406,6.5,226,6.0,8.8,0.00000,0.00001,30.1,32.7,46,0,0,0.0,0.00,0.00,0.00
15min,AgWx,bigpiney,439,13DEC2020:02:45:00,-5.2,12.35,-7.2,-7.7,-6.9,-5.8,-7.8,79,81,78,0.083,-11.6,-10.1,-12.7,4.954,4.9,225,4.2,5.5,-0.00000,0.00000,30.1,32.6,46,0,0,0.0,0.00,0.00,0.00
15min,AgWx,bigpiney,439,13DEC2020:03:00:00,-5.2,12.35,-6.4,-7.2,-7.9,-7.2,-8.5,80,80,79,0.086,-12.6,-11.7,-13.4,5.174,5.5,220,8.5,6.4,0.00000,0.00000,30.1,32.7,46,0,0,0.0,0.00,0.00,0.00
15min,AgWx,bigpiney,439,13DEC2020:03:15:00,-5.2,12.34,-7.2,-7.2,-7.0,-6.4,-7.7,79,81,78,0.084,-11.7,-10.9,-12.6,2.017,4.5,252,13,6.4,-0.00000,-0.00000,30.1,32.7,46,0,0,0.0,0.00,0.00,0.00
15min,AgWx,bigpiney,439,13DEC2020:03:30:00,-5.3,12.33,-8.0,-9.1,-8.0,-6.5,-9.2,78,80,78,0.077,-13.0,-11.1,-14.3,4.954,3.3,253,13,5.0,-0.00001,-0.00001,30.1,32.6,46,0,0,0.0,0.00,0.00,0.00
15min,AgWx,bigpiney,439,13DEC2020:03:45:00,-5.5,12.31,-4.7,-7.1,-7.3,-5.7,-9.1,79,82,77,0.085,-12.1,-9.8,-14.0,1.14,3.5,239,27,5.9,-0.00001,-0.00001,30.1,32.7,46,0,0,0.0,0.00,0.00,0.00
15min,AgWx,bigpiney,439,13DEC2020:04:00:00,-5.6,12.32,-1.0,-1.6,-3.9,-1.6,-6.9,79,81,77,0.108,-8.8,-6.8,-11.7,1.71,2.2,262,12,4.1,-0.00002,-0.00003,30.0,32.8,46,0,0,0.0,0.00,0.00,0.00
15min,AgWx,bigpiney,439,13DEC2020:04:15:00,-5.4,12.31,-4.8,-4.8,-3.3,-1.7,-4.8,76,78,75,0.092,-8.9,-7.2,-10.5,0.022,0.3,329,25,1.4,-0.00006,-0.00009,30.0,32.7,46,0,0,0.0,0.00,0.00,0.00
15min,AgWx,bigpiney,439,13DEC2020:04:30:00,-5.3,12.31,-8.0,-8.1,-6.5,-4.9,-8.1,78,79,77,0.081,-11.6,-10.0,-12.9,1.403,1.1,59,18,2.5,-0.00003,-0.00005,30.0,32.7,46,0,0,0.0,0.00,0.00,0.00
15min,AgWx,bigpiney,439,13DEC2020:04:45:00,-5.6,12.31,-7.8,-8.7,-8.5,-8.2,-9.0,80,81,79,0.080,-13.0,-12.6,-13.6,4.099,2.2,141,54,4.5,-0.00002,-0.00002,30.0,32.8,46,0,0,0.0,0.00,0.00,0.00
15min,AgWx,bigpiney,439,13DEC2020:05:00:00,-6.1,12.3,-9.3,-9.5,-8.6,-8.1,-9.5,79,80,78,0.075,-13.4,-12.7,-14.4,0.986,1.8,253,17,4.0,-0.00002,-0.00003,30.0,32.8,46,0,0,0.0,0.00,0.00,0.00
15min,AgWx,bigpiney,439,13DEC2020:05:15:00,-6.5,12.3,-6.8,-9.2,-9.4,-8.7,-10.1,79,80,78,0.077,-14.1,-13.2,-15.0,2.85,2.4,235,15,3.7,-0.00002,-0.00002,30.0,32.7,46,0,0,0.0,0.00,0.00,0.00
15min,AgWx,bigpiney,439,13DEC2020:05:30:00,-7.0,12.29,-11.5,-11.5,-9.7,-7.9,-11.5,80,81,79,0.069,-14.2,-12.1,-16.1,2.214,2.5,308,23,3.9,-0.00001,-0.00002,30.0,32.7,46,0,0,0.0,0.00,0.00,0.00
15min,AgWx,bigpiney,439,13DEC2020:05:45:00,-7.5,12.28,-10.8,-11.8,-12.4,-11.7,-13.6,80,82,79,0.071,-16.8,-15.7,-18.2,3.486,2.4,315,23,4.4,-0.00001,-0.00002,30.0,32.7,46,0,0,0.0,0.00,0.00,0.00
15min,AgWx,bigpiney,439,13DEC2020:06:00:00,-8.0,12.29,-11.6,-12.1,-12.0,-11.5,-12.4,81,82,81,0.068,-16.1,-15.6,-16.6,3.858,2.9,272,16,3.9,-0.00001,-0.00001,30.0,32.6,46,0,0,0.0,0.00,0.00,0.00
15min,AgWx,bigpiney,439,13DEC2020:06:15:00,-8.6,12.28,-9.6,-10.2,-10.9,-9.5,-12.3,82,83,80,0.075,-15.0,-13.3,-16.7,2.433,3.4,245,15,5.1,-0.00001,-0.00001,29.9,32.7,46,0,0,0.0,0.00,0.00,0.00
15min,AgWx,bigpiney,439,13DEC2020:06:30:00,-9.0,12.28,-8.4,-10.4,-10.1,-8.6,-10.9,81,83,79,0.074,-14.3,-12.5,-15.5,1.491,1.0,271,15,3.1,-0.00003,-0.00004,29.9,32.7,46,0,0,0.0,0.00,0.00,0.00
15min,AgWx,bigpiney,439,13DEC2020:06:45:00,-9.3,12.28,-7.2,-7.6,-8.5,-7.3,-10.2,82,83,81,0.086,-12.6,-11.2,-14.5,0,1.2,265,20,3.4,-0.00003,-0.00004,29.9,32.7,46,0,0,0.0,0.00,0.00,0.00
15min,AgWx,bigpiney,439,13DEC2020:07:00:00,-9.4,12.28,-6.1,-6.9,-7.2,-6.7,-8.2,82,82,81,0.089,-11.4,-10.8,-12.5,0,0.2,270,13,1.5,-0.00005,-0.00008,29.9,32.7,46,0,0,0.0,0.00,0.00,0.00
15min,AgWx,bigpiney,439,13DEC2020:07:15:00,-9.6,12.28,-5.3,-6.5,-7.7,-6.5,-9.9,81,83,78,0.092,-11.9,-10.5,-14.8,0.044,1.6,241,15,3.8,-0.00003,-0.00003,29.9,32.6,46,0,0,0.0,0.00,0.00,0.00
15min,AgWx,bigpiney,439,13DEC2020:07:30:00,-9.8,12.27,-10.6,-10.1,-8.2,-6.5,-10.1,81,83,78,0.074,-12.5,-10.4,-14.7,2.126,1.4,181,25,3.6,-0.00003,-0.00004,29.9,32.8,46,1,0,0.0,0.00,0.00,0.00
15min,AgWx,bigpiney,439,13DEC2020:07:45:00,-10.2,12.84,-6.5,-8.5,-10.2,-8.5,-12.1,81,84,79,0.085,-14.4,-12.0,-16.7,2.74,2.0,275,25,3.8,-0.00002,-0.00002,29.8,32.7,46,6,0,0.0,0.00,0.00,0.00
15min,AgWx,bigpiney,439,13DEC2020:08:00:00,-10.1,15,-7.9,-9.1,-7.7,-6.5,-9.4,84,86,81,0.079,-11.4,-10.0,-13.7,2.324,1.3,302,35,2.8,-0.00007,-0.00007,29.8,32.7,46,26,0,0.0,0.00,0.00,0.00
15min,AgWx,bigpiney,439,13DEC2020:08:15:00,-9.4,14.99,-7.5,-7.9,-8.5,-7.8,-9.1,82,83,81,0.085,-12.6,-11.5,-13.4,3.508,2.2,226,6.5,3.5,-0.00003,-0.00002,29.8,32.7,46,49,0,0.0,0.00,0.00,0.00
15min,AgWx,bigpiney,439,13DEC2020:08:30:00,-8.2,15,-4.3,-5.2,-6.3,-5.2,-8.0,81,82,79,0.094,-10.8,-10.0,-12.2,3.179,3.6,202,5.2,4.9,-0.00001,0.00001,29.8,32.7,46,59,0,0.0,0.00,0.00,0.00